BEESAT-4 (41619 NORAD) Tracking and Keplerian Element Data

This shows tracking and keplerian element data for the satellite.

Feedback or suggestion? Click here.




ElementValue
Catalog41619
NameBEESAT-4
Epoch Orbit28050
Epoch Day270.04640575
Epoch Year2021
RAAN323.2672
Inclination97.2586
Eccentricity0.0009628
Argument of Perigee341.4378
Mean Anonmoly18.6509
Mean Motion15.26085176
Decay Rate5.038E-05
L11 41619U 16040W 21270.04640575 .00005038 00000-0 19796-3 0 9996
L22 41619 97.2586 323.2672 0009628 341.4378 18.6509 15.26085176280505

Live tracking and technical data element details for BEESAT-4 (NORAD 41619). BEESAT-4 can be tracked NOW for your location showing map with azimuth and elevation plus other details from your city location.

Track the satellite on the map from your city or location and see movement details for azimuth, elevation, latitude, longitude, range, height, and movement on the map or in text.







IsCatalogInMostPopularTable: catalog: 41619, numindb: 550
Update: records affected: 1



GetName: 41619 BEESAT-4

Hit Count: updated at: Tue, 28 Sep 2021 16:34:07 GMT